| time (UTC) | temp C | wind direction | speed KPH | gust KPH | rain 1hr cm | rain 24hr cm | rain mn cm | humidity % | barometer mb |
| 20260503070249 | 8 | 51 | 0.0 | 4.8 | 0.00 | 0.61 | 0.08 | 91 | 1013.2 |
| 20260503060128 | 8 | 15 | 0.0 | 9.7 | 0.00 | 0.61 | 0.08 | 92 | 1012.9 |
| 20260503055115 | 8 | 20 | 0.0 | 9.7 | 0.00 | 0.61 | 0.08 | 92 | 1012.9 |
| 20260503054046 | 8 | 37 | 0.0 | 8.0 | 0.00 | 0.61 | 0.08 | 92 | 1013.0 |
| 20260503053041 | 8 | 23 | 0.0 | 4.8 | 0.00 | 0.61 | 0.08 | 92 | 1013.0 |
| 20260503052024 | 8 | 18 | 0.0 | 8.0 | 0.00 | 0.61 | 0.08 | 92 | 1013.0 |
| 20260503051033 | 8 | 51 | 0.0 | 11.3 | 0.00 | 0.61 | 0.08 | 92 | 1013.0 |
| 20260503050009 | 8 | 51 | 1.6 | 11.3 | 0.00 | 0.61 | 0.08 | 92 | 1013.0 |
| 20260503044950 | 8 | 16 | 0.0 | 4.8 | 0.00 | 0.61 | 0.08 | 92 | 1013.0 |
| 20260503044004 | 8 | 9 | 0.0 | 4.8 | 0.00 | 0.61 | 0.08 | 92 | 1013.0 |
| 20260503043012 | 8 | 28 | 0.0 | 4.8 | 0.00 | 0.61 | 0.08 | 92 | 1013.0 |
| 20260503040814 | 8 | 38 | 0.0 | 3.2 | 0.00 | 0.58 | 0.05 | 92 | 1013.1 |
| 20260503034706 | 8 | 0 | 0.0 | 8.0 | 0.00 | 0.58 | 0.05 | 92 | 1013.1 |
| 20260503033635 | 8 | 25 | 0.0 | 6.4 | 0.00 | 0.58 | 0.05 | 92 | 1013.1 |
| 20260503032657 | 8 | 41 | 0.0 | 4.8 | 0.00 | 0.56 | 0.03 | 92 | 1013.2 |
| 20260503030522 | 8 | 13 | 0.0 | 6.4 | 0.00 | 0.56 | 0.03 | 92 | 1013.1 |
| 20260503025509 | 8 | 16 | 0.0 | 1.6 | 0.00 | 0.56 | 0.00 | 92 | 1013.1 |
| 20260503024522 | 8 | 10 | 0.0 | 6.4 | 0.00 | 0.56 | 0.00 | 92 | 1013.1 |
| 20260503023448 | 8 | 9 | 0.0 | 1.6 | 0.00 | 0.56 | 0.00 | 92 | 1013.1 |
| 20260503022513 | 8 | 36 | 0.0 | 4.8 | 0.00 | 0.56 | 0.00 | 92 | 1013.1 |
| 20260503021500 | 8 | 30 | 0.0 | 6.4 | 0.00 | 0.56 | 0.00 | 92 | 1013.1 |
| 20260503020502 | 8 | 6 | 0.0 | 1.6 | 0.00 | 0.56 | 0.00 | 92 | 1013.1 |
| 20260503014331 | 8 | 18 | 0.0 | 0.0 | 0.00 | 0.53 | 0.00 | 92 | 1013.2 |
| 20260503013308 | 8 | 256 | 0.0 | 1.6 | 0.00 | 0.53 | 0.00 | 91 | 1013.2 |
| 20260503012235 | 8 | 132 | 0.0 | 0.0 | 0.00 | 0.53 | 0.00 | 91 | 1013.3 |
| 20260503011212 | 8 | 8 | 0.0 | 0.0 | 0.00 | 0.53 | 0.00 | 91 | 1013.3 |
| 20260503010138 | 8 | 91 | 0.0 | 3.2 | 0.00 | 0.53 | 0.00 | 91 | 1013.4 |
| 20260503005108 | 8 | 36 | 0.0 | 4.8 | 0.00 | 0.53 | 0.00 | 91 | 1013.3 |
| 20260503004116 | 8 | 32 | 0.0 | 4.8 | 0.00 | 0.53 | 0.00 | 91 | 1013.3 |
| 20260503003101 | 8 | 39 | 0.0 | 4.8 | 0.00 | 0.53 | 0.00 | 91 | 1013.4 |
| 20260503002123 | 8 | 18 | 0.0 | 4.8 | 0.00 | 0.53 | 0.00 | 91 | 1013.6 |
| 20260503001052 | 8 | 58 | 0.0 | 3.2 | 0.00 | 0.53 | 0.00 | 91 | 1013.6 |
| 20260502235006 | 8 | 8 | 0.0 | 4.8 | 0.00 | 0.53 | 0.00 | 90 | 1013.7 |
| 20260502234011 | 8 | 23 | 0.0 | 3.2 | 0.00 | 0.53 | 0.00 | 90 | 1013.8 |
| 20260502233011 | 8 | 56 | 0.0 | 8.0 | 0.00 | 0.53 | 0.00 | 90 | 1013.8 |
| 20260502232005 | 8 | 27 | 0.0 | 4.8 | 0.00 | 0.53 | 0.00 | 90 | 1013.8 |
| 20260502231003 | 8 | 25 | 0.0 | 8.0 | 0.00 | 0.53 | 0.00 | 90 | 1013.9 |
| 20260502225948 | 8 | 33 | 0.0 | 1.6 | 0.00 | 0.53 | 0.53 | 90 | 1013.9 |
| 20260502224948 | 8 | 19 | 0.0 | 1.6 | 0.00 | 0.53 | 0.53 | 90 | 1013.9 |
| 20260502222732 | 9 | 20 | 0.0 | 4.8 | 0.00 | 0.53 | 0.53 | 91 | 1013.8 |
| 20260502221753 | 9 | 34 | 0.0 | 1.6 | 0.00 | 0.53 | 0.53 | 91 | 1013.8 |
| 20260502220722 | 9 | 17 | 0.0 | 6.4 | 0.00 | 0.53 | 0.53 | 91 | 1013.8 |
| 20260502215712 | 9 | 33 | 0.0 | 8.0 | 0.00 | 0.53 | 0.53 | 90 | 1013.8 |
| 20260502214638 | 9 | 27 | 0.0 | 12.9 | 0.00 | 0.53 | 0.53 | 90 | 1013.9 |
| 20260502213611 | 9 | 30 | 0.0 | 12.9 | 0.00 | 0.53 | 0.53 | 90 | 1013.8 |
| 20260502212552 | 10 | 25 | 0.0 | 4.8 | 0.00 | 0.53 | 0.53 | 90 | 1013.8 |
| 20260502211552 | 10 | 22 | 0.0 | 4.8 | 0.00 | 0.51 | 0.51 | 89 | 1013.8 |
| 20260502210538 | 10 | 12 | 0.0 | 8.0 | 0.00 | 0.51 | 0.51 | 89 | 1013.8 |
| 20260502205523 | 10 | 285 | 0.0 | 8.0 | 0.00 | 0.51 | 0.51 | 88 | 1013.7 |
| 20260502204535 | 10 | 327 | 0.0 | 6.4 | 0.00 | 0.51 | 0.51 | 88 | 1013.7 |
| 20260502203500 | 11 | 39 | 0.0 | 6.4 | 0.00 | 0.51 | 0.51 | 87 | 1013.7 |
| 20260502202454 | 11 | 50 | 0.0 | 4.8 | 0.00 | 0.51 | 0.51 | 86 | 1013.6 |
| 20260502201425 | 12 | 35 | 0.0 | 4.8 | 0.00 | 0.51 | 0.51 | 88 | 1013.5 |
| 20260502200407 | 12 | 66 | 0.0 | 0.0 | 0.00 | 0.51 | 0.51 | 88 | 1013.3 |
| 20260502195424 | 12 | 66 | 0.0 | 0.0 | 0.00 | 0.51 | 0.51 | 88 | 1013.4 |
| 20260502192110 | 12 | 66 | 0.0 | 0.0 | 0.00 | 0.51 | 0.51 | 88 | 1013.2 |
| 20260502191050 | 12 | 66 | 0.0 | 0.0 | 0.00 | 0.51 | 0.51 | 88 | 1013.1 |
| 20260502190036 | 12 | 66 | 0.0 | 0.0 | 0.00 | 0.51 | 0.51 | 86 | 1013.1 |
| 20260502183900 | 13 | 66 | 0.0 | 0.0 | 0.00 | 0.51 | 0.51 | 84 | 1013.2 |
| 20260502182917 | 13 | 66 | 0.0 | 0.0 | 0.00 | 0.51 | 0.51 | 86 | 1013.0 |
| 20260502181909 | 13 | 28 | 0.0 | 0.0 | 0.00 | 0.51 | 0.51 | 86 | 1013.0 |
| 20260502180844 | 13 | 260 | 0.0 | 0.0 | 0.00 | 0.51 | 0.51 | 86 | 1012.9 |
| 20260502163507 | 12 | 259 | 0.0 | 0.0 | 0.00 | 0.51 | 0.51 | 85 | 1013.4 |
| 20260502162459 | 12 | 257 | 0.0 | 0.0 | 0.00 | 0.51 | 0.51 | 87 | 1013.3 |
| 20260502161507 | 12 | 343 | 0.0 | 0.0 | 0.00 | 0.51 | 0.51 | 88 | 1013.4 |
| 20260502160453 | 12 | 345 | 0.0 | 0.0 | 0.00 | 0.51 | 0.51 | 89 | 1013.5 |
| 20260502122659 | 14 | 229 | 0.0 | 6.4 | 0.00 | 0.00 | 0.00 | 75 | 1014.4 |
| 20260502120527 | 14 | 189 | 0.0 | 4.8 | 0.00 | 0.00 | 0.00 | 76 | 1014.4 |
| 20260502115530 | 14 | 153 | 0.0 | 1.6 | 0.00 | 0.00 | 0.00 | 76 | 1014.4 |
| 20260502114531 | 14 | 203 | 0.0 | 3.2 | 0.00 | 0.00 | 0.00 | 77 | 1014.5 |
| 20260502113548 | 13 | 167 | 0.0 | 0.0 | 0.00 | 0.00 | 0.00 | 78 | 1014.4 |
| 20260502111446 | 13 | 231 | 0.0 | 1.6 | 0.00 | 0.00 | 0.00 | 79 | 1014.5 |
| 20260502110417 | 14 | 278 | 0.0 | 4.8 | 0.00 | 0.00 | 0.00 | 78 | 1014.6 |
| 20260502105355 | 14 | 319 | 0.0 | 0.0 | 0.00 | 0.00 | 0.00 | 78 | 1014.5 |
| 20260502104350 | 15 | 278 | 0.0 | 0.0 | 0.00 | 0.00 | 0.00 | 77 | 1014.6 |
| 20260502102254 | 14 | 323 | 0.0 | 0.0 | 0.00 | 0.00 | 0.00 | 79 | 1014.7 |
| 20260502101223 | 13 | 224 | 0.0 | 0.0 | 0.00 | 0.00 | 0.00 | 78 | 1014.7 |
| 20260502100216 | 13 | 228 | 0.0 | 1.6 | 0.00 | 0.00 | 0.00 | 78 | 1014.8 |
| 20260502091046 | 13 | 240 | 0.0 | 0.0 | 0.00 | 0.00 | 0.00 | 80 | 1014.8 |